Location: Chefe Valiua
(16.5342°S, 37.2214°E)
Time: 12:30:10
(UTC+00:00)

Envisat - Pass Details

Date: 21 June 2021
Orbit: 764 x 766 km, 98.1° (Epoch: 25 July)

Event Time Altitude Azimuth Distance (km) Brightness Sun altitude
Rises 02:04:50 0° 21° (NNE) 3,211 6.8 -26.3°
Reaches altitude 10° 02:07:09 10° 24° (NNE) 2,291 6.0 -25.8°
Maximum altitude 02:12:07 59° 103° (ESE) 880 3.4 -24.6°
Enters shadow 02:15:36 20° 177° (S) 1,730 4.7 -23.8°
